Temp
9 9 9 9 9 9 9 9 10 10 10 10 10 10 10 10 10 10 10 10 10 10 11 12 13 15 15 15 16 17 17 16 16 14 15 23 27 26 26 26 25 23 24 24 24 23 22 22 23 24 24 24 24 23 23 22 22 22 23 23 22 23 24 24 24 24 24 24 23 23 24 25 25 25 25 26 26 26 26 25 25 25 25 25 24 24 24 24
9 9 9 9 9 9 9 9 9 10 10 10 10 10 10 10 10 10 10 10 11 11 11 13 14 14 14 15 15 15 15 14 13 13 19 27 27 26 26 25 24 23 24 24 24 23 22 22 23 24 24 24 24 23 23 23 22 23 23 23 23 24 24 23 23 23 24 24 23 23 24 25 25 25 26 26 25 25 25 25 25 24 24 24 24 24 24 24
9 9 9 9 9 10 10 10 10 10 10 10 10 10 10 9 10 10 10 10 11 12 12 14 15 14 14 14 13 14 13 12 15 19 25 28 27 26 26 25 24 23 24 24 24 24 24 24 23 24 24 24 25 23 22 23 23 23 24 24 24 24 24 23 23 23 24 24 24 24 24 26 25 25 26 25 25 25 24 24 24 24 24 24 24 24 24 24
9 9 9 9 9 10 10 10 10 10 10 10 10 10 10 9 9 9 10 10 11 12 14 15 15 15 14 13 13 14 12 14 22 26 27 27 27 27 25 25 25 23 24 24 24 24 25 25 24 25 24 24 24 23 22 23 23 24 24 25 24 24 24 23 23 23 24 24 24 24 25 26 25 25 25 25 25 24 25 25 24 24 24 24 24 24 24 24
9 9 9 9 9 10 10 10 10 10 10 10 9 9 10 9 9 9 11 11 12 13 15 15 15 15 14 13 13 13 14 21 26 27 27 27 28 27 25 25 25 24 24 24 24 24 25 25 25 25 24 24 24 23 23 24 24 24 24 25 24 24 24 23 22 23 24 24 24 24 24 25 25 25 25 26 25 25 25 25 25 24 24 25 24 24 24 24
10 10 10 10 10 10 9 10 10 10 11 11 10 9 9 9 9 10 12 13 13 14 15 15 14 14 14 14 14 13 17 24 26 26 27 27 28 27 26 26 25 25 24 24 25 24 25 25 25 25 25 25 24 24 24 24 25 25 25 24 24 24 24 23 23 23 24 24 24 23 23 24 25 25 25 26 26 26 26 26 25 25 25 25 25 24 24 24
13 13 12 12 11 10 10 10 10 10 10 11 11 10 9 9 10 11 13 14 15 15 14 14 14 13 14 14 14 14 18 24 25 27 28 27 28 27 26 26 25 25 24 24 24 24 25 25 25 25 25 25 25 25 25 25 25 26 25 25 24 24 23 23 23 23 24 24 24 24 23 24 25 25 25 26 27 27 27 26 26 26 26 25 25 25 24 24
15 15 14 13 12 11 11 11 11 11 11 11 11 11 11 10 11 12 14 15 15 15 14 14 13 12 13 14 15 17 19 24 27 27 28 28 27 27 25 25 25 25 24 24 24 24 25 25 25 25 25 26 26 25 26 25 25 26 25 25 24 24 23 23 23 23 24 24 24 24 24 24 24 24 26 26 26 26 26 26 26 26 26 25 25 25 24 24
15 15 15 14 14 13 12 12 11 11 11 12 13 13 13 13 13 14 15 15 15 15 14 13 12 11 12 13 16 20 23 26 28 28 28 28 27 26 25 25 25 25 24 23 24 25 25 25 25 26 26 26 27 26 26 26 25 26 26 25 24 24 23 23 23 23 23 23 24 24 24 24 23 24 26 27 26 27 26 26 26 25 25 25 25 25 24 24
15 16 16 16 15 14 14 13 12 12 12 13 14 14 14 14 15 15 15 16 15 14 14 12 11 12 12 14 17 22 26 27 28 27 28 28 27 26 25 25 25 24 24 23 24 25 25 26 26 27 26 26 28 27 26 27 27 26 26 26 25 24 23 23 23 23 23 23 23 24 23 24 24 24 26 26 26 27 26 26 25 25 25 25 25 25 25 24
15 16 16 16 16 16 15 14 13 13 13 14 15 15 16 16 16 17 16 16 15 14 13 11 11 12 12 14 19 24 26 27 27 27 27 27 27 26 25 25 25 25 24 23 23 25 25 26 27 27 27 27 29 28 27 28 28 27 27 26 25 24 23 23 23 23 24 23 23 24 23 24 24 25 26 26 27 27 26 25 25 25 25 25 25 25 25 25
15 16 16 16 16 16 15 15 15 15 15 15 16 16 17 17 17 17 17 16 15 13 12 11 11 12 12 15 19 24 26 26 26 27 26 27 27 27 26 26 25 25 25 24 23 25 25 26 27 27 27 27 28 28 27 28 28 27 27 25 24 24 24 23 23 23 24 23 23 24 24 24 25 25 25 26 27 26 26 25 25 25 25 25 25 25 25 25
16 16 16 16 16 16 16 16 16 17 17 17 17 17 17 17 17 17 16 16 15 13 12 11 11 11 14 18 22 25 26 25 25 26 26 26 26 25 25 25 25 25 25 25 25 25 25 26 27 26 27 27 28 29 29 29 28 27 26 25 24 24 24 23 23 23 24 23 23 24 23 23 24 24 25 27 27 26 25 25 25 25 25 25 25 25 25 25
16 16 16 16 16 16 16 17 17 17 18 18 18 18 18 18 18 17 16 15 14 13 12 12 12 12 15 21 24 25 25 25 24 25 25 25 24 24 23 23 24 24 25 25 26 26 26 26 26 26 27 27 28 29 29 28 28 27 26 25 24 23 23 23 23 23 24 23 23 24 23 22 24 24 25 27 27 26 25 25 25 25 25 25 25 25 25 25
16 16 16 16 16 17 17 18 18 18 18 18 18 18 18 18 18 17 16 16 15 14 13 13 13 13 16 20 24 25 25 24 24 25 26 25 24 23 23 23 24 24 24 25 26 27 27 27 27 26 27 28 28 28 27 26 27 26 25 23 24 23 22 23 23 23 24 23 23 24 23 22 24 25 25 26 27 27 26 26 26 26 25 25 25 25 25 25
16 16 17 17 17 17 18 18 18 19 19 19 19 18 18 18 17 16 16 15 15 15 14 14 13 14 18 22 25 26 24 24 26 27 26 25 25 24 24 23 24 24 24 25 26 26 27 27 27 27 28 29 29 27 26 25 24 26 25 22 22 23 22 23 23 23 24 23 23 23 23 23 24 25 25 26 27 27 26 26 26 26 26 26 26 26 26 26
17 17 17 17 18 18 18 19 19 19 19 19 19 18 18 18 17 16 15 14 15 15 14 14 14 14 19 24 25 26 25 25 27 27 26 26 26 26 25 24 24 24 24 25 26 26 27 27 27 27 28 29 28 27 24 22 22 24 24 23 23 24 22 22 23 23 23 24 23 23 24 24 24 25 25 25 26 27 27 26 27 26 26 26 26 26 26 26
17 17 17 18 18 18 19 19 19 19 19 19 20 19 18 18 17 16 15 14 14 14 15 15 15 17 21 25 25 25 26 27 28 28 27 26 26 26 26 25 25 25 25 26 26 27 26 27 27 28 28 28 28 27 23 22 23 23 23 23 23 24 23 23 23 23 23 23 24 24 23 24 24 24 25 25 25 26 27 27 27 27 27 27 27 27 27 26
18 18 18 18 19 19 19 19 19 19 19 19 19 18 18 17 16 16 14 14 16 18 19 18 18 21 23 24 25 25 26 27 28 28 27 26 26 26 27 26 26 26 26 26 26 26 27 27 27 26 27 27 28 28 26 26 26 25 24 24 23 23 23 24 24 23 23 23 23 24 23 24 24 23 24 24 25 26 27 27 27 27 27 27 27 27 27 27
18 18 18 19 19 19 19 20 20 20 19 18 18 18 18 19 19 19 16 15 17 21 23 21 20 22 23 24 25 25 27 28 27 27 27 27 26 26 27 27 26 26 26 26 26 27 27 27 26 26 26 27 28 28 29 29 28 27 26 24 24 23 23 25 24 24 24 24 23 24 24 24 23 22 23 24 24 26 27 27 27 27 27 27 27 27 27 27
18 19 19 19 20 20 20 20 20 20 19 18 18 19 20 21 22 21 20 19 19 19 21 22 21 22 24 24 25 25 26 26 27 27 27 28 27 26 27 27 26 25 25 26 27 27 27 26 25 27 27 28 28 28 29 28 28 28 26 24 24 23 23 24 24 24 24 24 23 24 24 24 23 23 23 23 23 25 27 27 27 27 27 27 27 27 27 27
19 19 19 20 20 20 20 21 21 20 19 19 19 19 20 22 23 22 22 22 21 20 20 21 21 22 23 23 24 25 24 25 27 27 28 28 27 27 27 26 26 25 26 26 26 26 26 25 26 27 27 26 27 28 28 28 28 27 25 24 23 23 23 23 24 24 24 24 23 23 24 23 23 23 23 23 23 24 26 27 27 27 27 27 27 27 27 27
19 19 20 20 21 21 21 21 21 20 20 19 18 19 21 23 23 22 22 22 22 22 22 21 22 22 23 24 24 25 24 25 26 27 28 28 27 27 27 26 26 26 26 26 26 24 23 25 27 27 26 26 27 27 28 28 28 27 25 24 22 23 23 22 23 24 24 24 23 23 23 23 23 23 23 23 23 23 24 26 27 27 27 27 27 27 27 27
19 20 20 20 21 21 21 22 21 21 21 20 20 21 23 23 23 22 22 22 22 23 24 23 24 24 25 26 26 25 25 26 27 28 28 28 27 27 27 26 26 26 26 26 26 25 24 26 28 27 26 27 27 27 28 27 27 26 26 25 23 24 25 23 23 24 24 24 24 24 22 22 23 23 23 23 23 23 24 25 27 27 27 27 27 27 27 27
20 20 20 21 21 21 21 21 21 21 21 21 22 24 24 24 23 23 22 22 22 24 25 25 25 25 27 27 27 26 26 27 28 28 28 28 27 27 27 27 26 26 26 25 25 25 26 27 27 27 27 27 27 27 27 27 25 25 26 27 25 25 25 24 24 24 22 22 24 24 21 21 22 23 23 23 23 23 24 25 26 26 27 27 27 27 27 27
20 20 21 21 22 22 22 21 21 21 21 22 24 24 23 24 24 23 22 21 21 24 26 25 25 26 27 27 27 27 26 26 28 28 28 28 28 28 27 26 27 26 26 26 26 26 27 27 27 28 27 27 27 26 27 28 25 23 26 28 27 26 25 24 24 24 21 21 24 25 22 21 21 22 24 23 23 23 24 25 25 26 26 26 27 27 27 27
20 21 21 21 22 22 22 22 21 21 22 23 24 23 24 24 24 23 22 20 21 24 25 25 25 26 27 27 27 27 25 26 28 28 28 28 28 29 27 26 27 26 27 26 24 25 27 28 27 27 27 27 26 25 27 29 26 24 27 28 27 26 24 24 25 23 22 22 23 24 23 21 21 22 24 23 23 23 24 24 25 25 26 26 26 27 27 27
21 21 22 22 23 22 22 22 20 21 23 24 24 24 24 24 24 23 21 20 22 24 25 26 26 27 27 27 28 27 26 27 27 27 28 28 28 28 27 26 27 26 28 26 23 25 28 28 28 28 27 26 26 26 28 29 27 27 29 28 27 27 26 26 26 24 23 23 21 22 23 22 21 22 23 23 23 23 23 24 25 25 25 25 26 26 26 27
21 21 22 23 23 22 21 20 20 22 24 24 24 24 24 24 24 23 21 20 22 25 26 26 27 27 27 27 28 28 28 28 27 27 28 28 28 28 27 27 27 27 28 27 25 26 28 28 29 28 27 27 27 28 29 29 29 29 29 27 26 26 26 26 25 24 23 22 21 21 22 21 21 21 22 22 22 23 24 25 25 25 25 25 25 26 26 27
21 22 22 23 22 22 21 21 22 24 24 24 24 24 24 24 23 22 20 21 23 24 26 26 26 27 27 27 27 27 27 28 28 27 28 28 28 28 28 27 27 27 27 27 26 27 27 28 29 29 28 29 29 29 28 29 30 29 28 25 24 24 24 24 23 23 22 22 21 22 22 22 21 21 22 22 23 24 24 25 25 25 25 25 25 26 26 25
22 22 23 23 23 22 21 22 24 24 24 24 24 24 24 23 22 20 20 23 23 24 25 26 26 27 27 27 27 27 27 27 27 27 27 27 27 27 27 27 27 26 26 26 26 27 27 28 29 30 30 30 30 29 29 29 30 29 28 25 23 22 22 22 21 22 22 21 22 23 23 22 21 22 23 24 25 25 25 25 25 25 25 25 24 24 23 23
22 22 23 24 23 22 22 24 25 24 23 24 23 23 23 22 21 20 21 23 23 23 25 26 26 26 26 27 27 27 27 27 27 27 27 27 26 27 26 26 26 24 22 23 25 26 27 29 29 30 31 31 30 28 28 28 29 29 27 24 22 21 21 21 20 21 21 22 23 24 23 22 21 23 24 25 25 25 25 25 25 25 25 24 23 22 23 24
23 23 24 24 24 24 24 25 25 24 24 24 23 23 23 21 20 21 22 23 23 24 26 26 26 26 26 26 26 27 27 27 27 27 27 27 26 26 26 26 26 25 23 23 23 23 25 28 29 29 30 31 30 28 26 26 27 27 25 23 21 20 20 20 20 21 21 22 23 24 24 22 22 23 24 25 26 25 25 25 25 25 24 23 22 23 24 25
23 24 24 25 25 25 26 25 25 24 24 24 23 23 22 21 21 22 22 23 24 25 26 26 26 26 26 26 26 27 27 26 27 27 27 26 25 25 26 26 26 27 25 24 23 22 22 24 27 29 29 30 31 30 28 28 27 27 28 25 22 21 21 21 21 21 21 21 22 23 23 21 21 23 23 24 26 25 25 24 24 24 23 22 22 23 24 24
24 24 25 25 26 26 26 26 25 25 24 23 23 23 21 20 21 22 23 24 25 25 25 26 26 25 25 26 26 27 27 26 27 27 26 25 24 24 25 26 26 27 26 23 23 23 22 22 28 30 29 30 31 30 31 30 26 27 29 26 23 23 24 22 22 22 21 21 21 22 21 21 22 23 24 24 25 25 24 24 24 23 22 22 22 23 23 24
24 25 25 26 26 26 27 26 25 25 24 23 23 22 21 22 22 23 24 25 25 25 25 25 25 24 23 24 25 25 26 26 26 26 25 24 24 24 25 25 26 26 26 24 24 24 21 23 29 30 29 31 31 31 32 30 27 26 26 25 25 27 27 23 21 22 22 21 21 21 21 21 23 23 24 25 24 24 24 24 24 23 22 22 22 23 23 23
25 25 25 26 26 26 27 26 25 25 24 24 22 22 23 23 24 24 25 26 25 26 25 23 23 23 22 22 23 24 26 26 25 25 24 23 24 24 24 25 26 26 26 25 25 25 23 23 28 29 29 30 30 30 32 31 29 27 25 26 28 28 28 25 22 22 22 21 21 21 21 21 21 22 23 24 23 22 23 23 23 22 22 22 22 22 23 23
23 23 24 26 26 27 26 25 25 24 24 23 22 22 23 24 25 25 25 26 26 26 25 22 23 23 22 22 23 24 25 24 24 24 23 23 23 24 24 25 26 26 25 24 25 25 24 23 26 29 29 29 30 30 29 29 31 29 28 29 28 24 24 24 22 21 21 20 20 21 21 21 21 21 22 23 22 22 22 22 23 22 22 22 22 22 22 22
21 23 25 26 27 26 26 25 25 24 24 23 22 23 24 25 26 26 25 26 26 25 24 23 23 23 23 23 23 24 25 24 24 24 23 22 23 24 25 24 25 26 25 26 25 25 25 23 24 28 30 29 30 29 26 26 29 30 30 30 28 25 24 23 23 22 21 21 20 20 20 21 21 21 22 22 22 22 22 22 22 22 22 22 22 22 22 22
21 23 25 26 26 26 26 25 24 24 24 23 22 23 24 25 26 26 25 26 26 25 25 24 24 23 23 24 24 24 25 24 24 24 23 23 23 24 25 24 25 25 25 26 25 25 25 23 22 26 29 27 27 27 27 27 28 28 27 26 26 26 25 25 24 23 21 21 20 20 21 21 21 21 22 22 22 22 22 22 21 21 21 22 22 21 21 21
20 23 25 25 26 26 25 25 24 23 23 23 22 24 25 25 26 26 26 26 26 26 25 25 25 24 24 24 24 24 25 24 25 24 23 23 23 24 25 24 24 25 25 26 26 25 25 24 22 24 25 25 26 28 29 30 30 29 27 26 26 26 24 23 22 22 22 21 21 21 21 20 21 21 22 22 22 22 22 22 21 20 20 20 21 21 21 21
21 24 25 25 25 25 25 25 23 23 23 24 24 25 26 26 26 26 26 26 26 26 26 26 25 25 24 24 24 25 25 24 24 24 23 24 24 24 25 25 24 24 25 25 25 25 25 24 22 22 23 24 26 28 27 28 30 30 29 28 28 27 25 23 22 22 22 21 21 21 21 20 21 21 22 22 21 21 21 21 20 20 20 20 20 21 21 21
22 23 25 25 25 25 25 24 23 23 24 24 25 25 26 26 26 26 26 26 26 26 26 26 25 25 25 25 25 25 25 23 23 24 24 24 25 25 25 25 24 25 25 25 24 25 25 23 22 22 24 26 28 28 28 28 30 29 28 28 28 27 26 25 24 23 22 21 21 21 21 21 21 21 21 21 21 21 20 20 20 20 20 20 20 20 20 20
20 20 22 24 25 26 25 23 24 24 24 25 25 26 26 26 25 25 25 25 25 25 25 25 25 25 25 25 24 24 24 23 23 24 24 24 25 25 25 25 25 25 25 25 25 25 24 22 22 22 22 23 25 26 27 27 28 27 27 28 27 27 26 25 24 23 22 21 21 21 21 20 21 21 21 21 21 20 20 20 20 20 20 20 20 20 20 19
19 20 21 23 24 25 25 24 24 25 24 25 25 25 25 26 25 25 25 25 25 25 25 25 25 25 25 25 24 23 23 23 23 24 24 24 25 25 25 24 24 24 25 24 24 24 24 23 22 21 21 21 21 22 23 24 25 26 26 27 27 27 26 25 23 22 22 21 21 21 20 20 20 21 21 21 21 20 20 20 20 20 20 20 20 20 20 20
21 22 22 22 23 24 24 23 23 25 25 24 25 25 25 25 25 25 25 25 25 25 25 24 25 25 25 25 24 23 23 24 24 23 24 24 25 25 24 24 24 24 25 24 23 24 25 23 22 22 22 22 22 23 24 24 24 24 25 27 27 26 26 25 23 22 22 21 21 21 20 20 20 21 21 21 21 20 20 20 20 20 20 20 21 20 20 20
21 21 21 21 22 23 24 23 23 24 25 24 24 24 24 24 24 25 25 25 24 25 25 24 23 24 24 24 24 23 23 23 23 23 23 23 24 24 24 25 24 24 25 25 23 24 25 23 22 23 23 22 23 24 25 25 24 24 25 26 27 27 26 25 23 23 22 21 21 21 21 20 20 21 21 21 21 21 20 20 20 20 20 21 21 21 20 20
20 21 20 20 21 22 23 23 23 23 24 25 24 24 24 23 23 24 24 25 24 24 24 23 22 22 23 24 24 23 22 22 22 22 23 22 23 24 24 25 25 24 24 24 23 24 24 22 22 23 23 24 24 24 25 26 25 25 25 25 26 26 26 25 23 23 23 23 21 21 21 21 21 21 21 21 21 21 20 21 21 20 21 21 21 20 20 20
19 20 19 19 20 21 21 21 21 22 24 25 24 24 23 23 23 23 23 24 24 23 23 22 21 21 22 23 23 22 21 21 21 22 22 22 22 23 23 24 24 24 24 24 23 22 22 22 22 23 23 24 25 24 25 26 25 25 25 25 25 25 25 24 23 23 23 23 22 21 21 21 22 22 21 22 21 21 21 21 21 21 21 21 21 20 20 20
18 18 18 18 19 20 20 21 22 24 24 23 23 24 23 23 24 23 23 23 23 23 23 22 21 21 21 22 22 22 21 22 22 22 22 23 23 23 23 23 24 24 24 23 23 23 22 21 21 22 23 23 24 25 25 25 25 25 25 25 25 24 24 23 23 22 22 21 21 21 21 21 22 22 22 22 21 21 21 20 20 21 21 20 21 20 20 20
16 17 17 18 20 20 20 20 22 24 24 23 23 24 23 23 23 23 23 23 22 23 23 22 21 21 21 22 22 22 22 22 22 23 23 23 23 23 23 23 23 24 24 23 22 23 22 21 21 22 22 22 23 24 24 25 26 24 24 25 25 24 23 23 23 23 22 21 21 21 20 21 22 22 22 21 21 21 20 20 20 20 20 20 20 20 20 20
16 16 16 17 20 20 19 20 21 23 24 23 23 23 22 22 23 23 23 22 22 22 22 22 22 22 22 22 22 22 22 22 23 23 23 23 23 23 23 23 23 23 23 23 22 21 21 21 21 21 21 21 22 23 23 24 24 22 23 24 24 24 24 24 24 23 22 22 22 21 21 22 22 22 21 21 21 21 21 21 20 20 20 20 20 19 19 20
Height
794 793 792 791 790 789 788 787 786 785 784 783 782 781 781 780 780 779 778 777 776 775 775 774 773 772 771 771 770 770 769 767 766 767 763 752 748 753 754 756 757 758 761 763 765 767 770 773 774 774 776 778 779 782 783 782 783 789 797 804 807 806 802 798 799 798 794 795 797 794 793 797 799 797 791 789 795 796 799 800 798 797 797 800 804 806 809 812
794 792 791 790 789 788 787 787 786 785 784 782 781 781 779 779 778 778 777 776 775 774 773 773 772 772 770 770 770 769 768 766 766 763 754 746 748 751 752 755 757 758 759 761 762 763 769 772 772 774 777 780 780 782 784 783 784 791 797 803 804 800 795 791 794 795 793 794 796 794 793 795 797 796 792 797 805 801 804 807 802 804 804 805 806 809 811 812
793 792 791 789 788 787 786 785 785 784 783 782 781 780 779 778 777 776 776 775 774 773 772 772 771 770 770 770 769 769 768 767 765 756 745 743 746 748 751 754 756 757 758 760 761 762 766 769 771 773 778 782 781 782 787 785 786 789 793 802 800 792 790 789 790 791 790 790 793 795 793 793 794 793 794 801 807 806 808 809 806 808 809 808 808 809 812 813
793 792 790 789 788 786 785 784 783 782 781 781 780 779 778 776 776 775 774 773 773 772 771 770 770 770 770 769 769 769 768 768 759 746 742 743 743 746 750 752 754 757 758 760 762 765 767 768 770 772 779 785 782 783 788 786 787 789 790 797 793 786 791 791 789 787 785 787 791 794 794 795 794 793 796 800 808 812 809 805 804 806 806 807 808 809 812 814
792 791 790 788 787 786 784 783 782 781 780 779 778 777 776 775 774 774 773 772 771 771 770 769 769 769 769 769 770 768 769 768 754 741 743 742 742 745 748 752 754 756 758 761 763 766 768 768 771 774 780 786 785 786 787 781 782 789 788 788 787 786 792 791 789 789 786 788 792 795 797 796 793 795 797 799 807 810 803 800 800 800 802 804 807 810 812 814
791 790 788 787 786 785 783 782 781 780 779 777 777 776 775 774 773 772 772 771 770 769 769 768 768 768 769 769 769 768 769 765 748 741 743 741 742 745 748 752 754 756 758 761 763 765 768 769 773 779 782 784 787 787 784 778 779 789 789 785 786 786 790 789 787 790 787 789 796 799 800 797 797 799 798 798 803 801 795 797 798 799 800 803 806 810 812 814
790 788 787 786 785 784 782 781 780 778 778 776 775 774 774 773 772 771 770 770 769 768 768 767 768 768 768 769 769 769 769 759 744 742 743 741 744 745 749 751 753 756 758 760 762 765 768 770 775 778 782 784 784 783 780 778 778 786 790 787 787 786 790 789 787 790 787 789 795 795 797 799 803 802 798 799 799 795 795 797 798 800 802 804 807 810 812 814
789 787 786 785 784 782 781 780 778 777 776 775 774 773 772 771 771 770 769 769 768 767 767 767 767 767 768 769 768 769 767 753 742 743 743 742 745 745 749 751 753 755 756 760 760 763 767 772 775 776 783 783 779 780 778 781 784 785 788 787 786 787 789 788 788 791 789 790 793 794 798 801 804 802 799 800 797 794 797 799 800 802 804 807 809 811 813 815
788 787 785 784 782 781 780 778 777 776 774 773 772 771 771 770 769 769 768 768 767 767 766 766 767 767 768 768 768 768 758 745 742 743 743 743 745 746 749 749 752 754 756 760 760 763 766 770 773 772 779 778 775 778 775 783 788 782 783 786 787 789 789 789 790 792 793 794 795 799 803 801 802 805 802 797 795 794 797 801 803 804 808 810 811 812 813 815
787 786 784 783 781 780 778 777 775 774 773 772 771 770 769 769 768 767 767 766 766 765 765 766 766 767 768 767 769 766 749 741 743 743 743 744 745 746 748 749 751 753 755 758 759 761 762 765 768 766 772 774 772 774 773 779 779 774 779 784 787 790 789 789 792 793 794 797 798 801 807 803 800 807 807 798 792 795 800 805 805 807 811 812 812 813 814 816
787 785 784 782 780 779 777 775 774 772 771 770 769 769 768 767 767 766 766 765 765 764 765 765 766 767 768 767 768 761 745 741 743 742 743 744 744 745 746 748 750 752 754 757 758 758 760 762 762 765 773 772 769 771 771 770 769 771 778 785 789 789 791 792 793 794 795 800 800 800 805 804 801 806 807 799 793 795 803 808 808 809 812 813 814 814 815 817
786 784 783 781 779 777 775 774 772 771 770 769 768 767 767 766 766 765 765 764 764 764 764 765 766 767 768 768 764 753 742 742 743 742 744 743 744 745 745 747 748 750 752 755 757 757 760 762 762 769 771 769 772 775 771 763 766 773 778 791 796 791 795 796 795 795 796 802 799 798 809 812 809 809 804 797 795 797 803 809 810 811 813 814 815 815 817 817
785 783 782 780 778 776 775 773 771 770 769 768 767 766 766 765 765 765 764 764 763 764 764 765 766 767 769 765 752 744 743 744 743 743 744 744 745 745 746 748 749 751 752 753 756 757 761 762 764 768 766 769 775 770 765 761 767 777 781 792 799 800 803 798 797 798 797 802 796 797 820 825 814 809 803 797 798 801 807 811 811 812 813 815 816 817 818 817
784 782 781 779 777 775 773 772 771 769 768 767 766 765 765 764 764 764 763 764 763 764 765 766 767 767 768 758 743 742 744 743 744 743 743 744 744 746 747 749 750 752 753 754 757 758 761 762 764 766 764 768 769 762 767 771 774 782 788 794 800 809 811 799 798 800 801 805 797 799 823 828 815 810 804 798 799 803 810 812 812 813 813 815 816 817 819 817
783 782 780 778 776 774 772 771 770 768 767 766 765 765 764 764 764 763 764 764 764 764 765 767 767 767 768 757 742 742 743 742 742 740 742 743 744 746 746 748 750 751 753 755 757 758 761 762 765 770 767 762 764 771 780 783 782 785 796 808 806 808 813 805 800 800 802 805 800 803 821 825 816 810 804 800 801 804 810 812 812 813 813 815 816 817 819 818
783 781 779 777 775 773 772 770 769 768 767 765 765 764 764 764 764 763 764 763 764 765 766 768 767 768 768 755 742 741 742 741 739 738 741 742 743 744 745 748 750 751 754 755 757 758 760 763 765 767 766 764 769 779 788 794 795 790 795 811 810 808 815 811 804 800 800 804 805 807 819 825 816 808 804 801 802 805 810 812 812 813 813 814 816 816 817 818
782 780 778 776 774 773 771 770 769 767 766 765 765 764 764 764 764 764 764 764 766 765 766 768 767 769 762 746 742 743 740 739 738 738 740 741 743 744 745 749 750 751 754 755 758 759 760 764 765 765 766 769 773 780 796 808 808 798 796 805 805 805 812 814 810 803 799 804 809 809 815 821 814 807 806 803 803 806 809 812 811 812 813 813 814 815 816 818
781 779 777 775 773 772 770 769 768 766 766 765 764 764 764 764 765 765 765 765 766 767 768 768 768 770 760 745 744 744 738 738 737 737 740 741 743 745 746 747 748 751 756 759 760 761 764 765 766 771 772 774 775 780 798 806 801 800 800 803 805 804 807 812 810 804 803 808 812 813 817 818 813 809 808 804 804 807 808 809 810 810 812 812 813 814 815 817
780 778 776 774 773 771 770 768 767 766 765 764 764 764 764 765 765 765 765 766 767 766 765 765 765 764 758 747 743 740 737 738 738 737 739 741 743 745 745 746 748 753 761 767 766 763 765 767 771 777 778 778 778 779 784 786 786 791 793 798 804 806 807 807 804 800 802 811 814 815 818 818 816 814 811 808 806 807 808 807 809 810 810 811 812 813 814 816
779 777 775 773 772 770 769 767 766 765 764 764 763 764 765 766 766 766 766 765 762 757 755 756 756 755 752 746 741 740 738 737 738 737 738 740 742 745 746 747 752 757 764 770 769 762 763 773 778 778 778 776 775 774 773 775 778 783 788 795 799 804 806 802 800 798 796 808 815 812 815 818 818 817 812 811 811 808 808 808 809 809 810 811 812 812 814 815
778 776 774 772 771 769 768 766 765 764 763 763 762 764 765 765 766 766 762 759 753 750 750 749 749 749 746 742 740 740 742 741 738 736 737 739 740 748 751 751 760 767 766 766 766 761 764 777 778 772 772 771 772 772 771 774 777 780 787 796 800 804 806 800 799 800 796 805 816 813 816 820 818 818 814 813 816 811 806 808 809 808 808 809 810 812 812 813
777 776 773 772 770 768 767 765 764 763 762 762 761 762 762 760 761 760 759 759 751 746 748 747 747 748 742 740 739 739 746 748 743 738 737 738 743 751 754 755 764 769 765 765 768 770 774 778 773 767 769 771 771 771 772 776 778 783 788 796 804 805 806 805 801 800 797 804 817 816 817 821 818 817 817 816 817 812 805 804 804 805 807 808 809 810 811 812
777 774 773 771 769 768 766 764 763 763 762 761 761 761 759 757 757 756 758 762 755 745 745 747 748 747 742 739 736 738 747 749 748 742 736 740 746 749 754 759 764 766 766 769 772 779 782 774 765 765 768 772 774 773 774 777 778 784 789 795 804 802 802 809 807 802 799 801 810 814 818 822 820 819 819 816 815 811 806 803 800 801 804 805 805 806 808 811
775 773 772 770 769 767 765 763 763 762 762 760 760 759 757 756 756 755 756 761 760 748 741 742 741 742 741 736 733 739 746 744 744 742 735 740 748 749 753 758 764 767 768 769 771 777 777 766 760 764 768 771 775 776 777 781 782 785 786 789 798 797 794 800 803 802 803 804 804 810 824 827 821 823 822 815 815 814 808 804 802 802 801 802 803 804 805 807
774 773 771 768 768 767 764 763 762 762 761 759 759 757 756 756 754 754 757 765 766 751 741 740 739 738 734 733 734 736 742 742 740 737 733 737 745 750 754 755 761 770 770 769 772 775 771 760 758 765 769 771 776 778 777 780 784 786 783 780 785 790 791 796 800 802 814 820 807 806 828 834 823 822 821 816 817 816 810 807 806 804 803 803 805 805 805 805
773 772 770 768 766 765 764 762 761 762 761 759 758 757 756 755 754 753 759 772 772 756 746 745 743 740 733 735 734 734 747 748 735 732 733 735 739 745 756 758 758 766 767 767 771 772 765 757 758 764 768 771 776 779 775 774 785 789 777 771 777 784 791 798 798 803 818 823 807 801 821 835 830 823 817 816 819 817 811 809 807 805 805 805 805 805 805 805
772 770 769 767 764 764 763 762 762 762 761 759 757 757 756 754 754 753 763 783 780 758 750 748 744 740 736 735 732 740 759 751 735 734 733 735 737 739 756 763 761 764 760 765 777 771 760 758 762 764 767 772 777 778 772 771 783 784 767 766 777 782 790 795 794 801 809 810 810 806 811 827 833 823 814 815 821 819 814 812 809 806 806 805 805 804 804 804
771 769 768 766 764 763 762 762 762 760 760 759 756 756 755 753 753 754 772 796 783 755 750 747 738 736 735 734 733 741 750 743 744 745 731 733 739 741 757 762 761 764 756 766 782 770 757 761 763 763 769 773 772 770 767 767 775 771 761 765 772 777 785 787 790 799 800 807 824 819 810 825 833 821 814 817 822 821 816 812 809 807 806 806 805 805 804 804
770 767 766 765 764 762 761 761 761 758 758 757 755 756 753 752 753 760 781 795 776 753 749 744 738 737 737 738 739 741 741 740 747 744 732 737 740 741 755 757 756 762 757 762 773 764 756 756 754 758 767 767 762 760 760 764 767 761 760 769 774 781 787 788 794 800 799 809 826 821 812 826 834 823 819 822 821 818 814 809 807 806 805 806 806 805 805 805
768 766 764 763 762 761 761 760 758 757 756 754 756 754 751 754 760 776 795 789 770 757 749 744 744 743 742 746 747 744 744 744 742 739 739 743 741 741 748 748 751 760 760 760 763 760 753 748 747 752 755 754 752 755 755 757 759 757 765 778 787 795 797 799 804 804 808 816 817 812 808 817 829 823 815 814 809 806 808 808 807 805 805 806 807 806 806 807
766 764 763 761 761 760 760 759 756 756 755 754 755 751 753 761 770 790 797 776 765 761 751 749 749 744 745 750 752 749 747 746 743 744 748 749 749 751 752 755 758 763 767 765 762 759 753 751 750 744 741 743 748 753 754 753 754 758 770 781 796 810 810 815 822 815 818 820 807 802 803 812 826 819 805 801 796 795 801 804 805 805 805 806 809 810 809 808
765 763 761 760 759 759 759 758 755 755 754 753 753 752 760 773 781 791 785 767 767 765 753 752 750 747 749 750 752 751 749 750 746 747 753 755 758 759 760 764 765 772 780 775 768 763 755 751 747 740 736 737 748 758 759 759 757 762 775 784 806 829 830 837 846 834 822 813 799 796 801 814 820 807 797 795 793 793 795 797 800 802 804 808 812 813 810 806
763 761 759 758 757 756 756 755 754 754 753 751 753 756 766 783 790 786 777 770 769 758 748 750 748 748 751 753 754 750 750 752 749 750 753 755 761 761 761 761 760 770 780 777 774 770 762 753 745 745 741 734 743 758 764 767 766 768 777 786 807 831 843 851 852 838 824 810 796 792 802 816 813 800 797 792 788 789 790 793 798 800 805 810 812 811 808 805
760 759 758 756 755 754 754 754 753 754 752 751 756 761 773 789 789 778 774 769 760 750 747 749 748 750 753 754 754 750 752 755 750 752 756 757 765 767 764 762 759 761 767 773 775 773 777 770 751 745 744 735 738 747 750 757 764 766 764 774 793 807 823 837 834 829 826 817 805 799 808 821 815 802 796 788 784 786 788 792 797 801 805 809 810 810 808 806
759 757 756 754 754 753 752 754 753 753 753 754 760 770 782 792 785 776 772 763 755 752 750 747 748 756 759 756 753 749 752 756 752 754 761 764 770 772 768 765 761 759 765 775 774 770 778 773 747 737 736 733 736 737 735 746 764 765 757 769 785 782 787 804 807 805 809 817 819 814 817 819 808 798 792 787 787 789 791 794 798 804 807 808 811 811 808 807
757 755 755 753 752 752 752 753 753 753 754 757 768 777 782 782 776 772 765 756 754 755 753 753 755 763 768 764 760 755 750 754 757 760 766 769 770 771 768 764 760 758 762 770 771 770 778 768 743 736 735 730 733 733 730 741 758 765 766 772 772 762 766 786 799 794 796 818 828 822 822 817 806 802 796 791 795 796 797 798 801 806 807 809 811 810 808 807
756 754 754 752 751 751 751 752 753 753 755 762 775 780 775 770 766 763 758 752 754 752 755 766 767 767 774 773 769 763 755 757 761 764 771 774 771 770 768 763 758 757 758 762 764 765 773 767 746 740 742 734 728 729 730 732 741 759 770 765 758 762 765 776 799 808 810 829 834 823 826 824 816 815 805 800 807 807 805 803 804 806 807 808 810 808 807 806
756 754 753 750 750 750 750 752 752 753 758 767 777 777 770 766 760 757 755 752 753 753 759 771 770 767 773 775 773 766 760 764 767 768 773 777 774 770 769 765 758 756 755 758 762 760 765 770 754 741 744 738 727 732 742 739 735 744 754 751 756 775 779 776 795 811 819 838 841 829 827 824 819 819 812 810 814 812 809 806 805 808 807 808 808 807 806 805
756 757 756 751 750 750 750 752 752 755 763 773 780 776 768 764 757 754 753 752 753 756 763 769 768 768 770 770 771 767 762 767 770 771 776 780 778 769 765 765 760 756 753 754 760 760 761 771 764 743 739 739 734 740 753 753 744 740 745 750 755 766 773 775 784 793 809 834 842 836 833 824 817 816 813 813 812 808 808 807 806 806 806 807 807 806 806 805
758 761 759 751 749 750 749 751 754 761 769 776 779 773 766 763 757 752 751 751 753 756 763 767 766 769 771 768 768 766 764 766 768 773 778 778 777 770 763 763 762 758 754 752 757 759 759 768 769 751 740 744 748 748 750 753 751 750 754 759 761 761 764 771 779 784 798 822 836 840 838 826 815 812 810 809 809 806 806 807 808 808 807 808 808 807 806 805
761 765 761 751 751 751 750 756 762 767 771 774 774 770 764 760 757 754 751 749 752 753 756 762 764 768 770 769 768 765 765 767 768 774 779 777 777 775 764 761 762 759 756 756 758 759 762 767 770 762 753 754 754 746 742 743 744 748 754 758 761 763 766 779 792 792 792 806 821 827 831 827 817 809 806 806 807 807 806 807 811 812 812 813 811 808 808 806
765 769 761 752 753 752 754 765 770 769 771 770 768 764 760 758 758 758 754 751 753 753 753 758 762 765 767 768 767 765 766 772 772 774 778 776 775 774 764 759 760 759 757 761 762 759 760 767 770 766 761 759 753 745 743 742 739 742 749 754 758 760 764 775 791 796 795 801 807 811 821 825 816 806 805 806 806 807 808 809 812 815 814 814 814 812 809 807
768 767 757 752 753 751 759 773 773 770 770 766 762 760 758 758 759 759 757 756 757 757 757 760 762 764 765 764 766 767 768 774 775 773 775 775 771 767 764 760 759 759 758 763 764 757 760 772 774 768 763 756 747 742 741 740 740 746 751 752 756 760 760 764 772 783 795 803 805 811 824 826 814 806 805 807 806 808 809 810 813 817 814 812 815 814 811 809
770 767 758 754 752 752 764 775 773 770 769 764 762 761 758 759 760 760 761 761 761 760 762 764 762 763 764 762 766 769 770 774 778 773 772 775 771 764 763 762 760 760 760 764 764 759 765 778 779 777 777 772 764 759 755 748 748 755 757 754 755 759 761 765 770 778 793 803 801 807 824 826 813 807 807 807 808 810 811 811 812 816 815 813 813 814 812 811
769 768 763 757 753 755 764 769 768 770 769 766 766 764 762 762 761 761 762 763 761 760 763 764 761 761 762 763 767 771 768 771 776 775 772 774 771 765 764 764 762 761 761 761 760 759 767 777 779 781 788 791 790 785 775 766 761 760 760 756 756 760 761 765 774 780 791 800 800 804 820 823 813 810 810 809 809 811 812 812 812 813 814 813 812 813 812 812
771 772 770 763 758 758 762 763 764 767 767 767 769 767 767 768 764 760 760 762 762 760 763 765 762 762 764 766 771 774 772 770 773 776 777 776 772 768 766 763 762 762 760 758 758 759 767 775 779 782 783 786 787 780 771 769 768 765 763 759 758 762 762 765 773 779 785 797 805 806 811 816 816 814 813 811 811 812 812 812 813 813 813 813 812 812 812 812
774 777 778 775 769 766 766 764 764 765 764 767 771 770 770 772 769 764 762 764 764 762 763 766 766 768 770 770 773 778 778 775 775 778 781 779 774 770 766 763 763 763 760 758 759 761 767 777 780 779 779 779 779 774 767 766 768 767 764 761 760 761 763 766 771 774 779 793 807 808 804 810 815 812 811 812 811 811 812 812 812 813 812 812 812 811 812 813
776 778 778 778 778 777 774 769 767 767 764 765 769 771 773 775 775 773 769 765 766 765 767 772 775 774 773 771 774 782 785 784 784 784 783 782 778 774 770 766 764 764 763 763 763 764 773 781 780 778 777 775 774 773 769 765 766 768 766 763 761 762 763 765 772 777 776 779 791 801 803 806 807 807 808 809 808 809 811 810 811 811 812 812 812 813 814 814
778 779 777 776 779 780 776 771 770 769 766 766 769 772 775 777 777 776 772 770 772 772 772 781 785 780 776 773 775 787 792 791 792 789 784 783 783 781 780 776 770 766 766 768 768 769 777 785 785 782 779 773 771 771 769 766 766 767 768 766 764 766 766 768 775 781 778 777 784 794 803 805 802 802 804 804 805 807 809 810 811 812 813 813 814 815 816 816
780 782 781 780 780 778 775 772 770 768 767 770 773 773 775 777 777 776 773 775 780 778 776 783 786 781 780 778 778 787 790 788 790 789 783 783 784 783 784 782 777 772 771 773 773 771 777 789 790 784 782 780 774 770 768 769 769 768 769 768 767 770 772 775 779 782 785 791 794 796 806 811 803 798 801 803 805 808 810 812 813 814 815 815 815 817 818 818
782 782 782 782 781 778 776 774 771 769 770 772 775 774 775 777 777 776 777 777 780 780 778 781 783 780 780 781 782 786 786 783 784 782 779 780 782 781 781 780 778 777 776 778 779 775 780 791 792 787 789 788 780 776 774 769 768 770 772 772 771 773 776 778 779 780 785 795 801 804 810 810 801 797 801 804 806 809 812 813 813 815 818 817 817 819 819 820
782 781 780 782 781 779 779 777 773 773 774 774 774 774 776 778 774 775 781 781 777 778 778 778 779 780 783 785 784 782 780 779 778 777 776 777 777 777 778 777 777 778 779 780 783 785 786 790 794 796 798 792 785 783 779 772 778 785 781 775 774 774 774 776 778 778 780 785 794 799 799 796 794 796 801 805 808 810 813 812 812 815 818 819 819 820 821 822
Wind_Speed
13 13 12 12 12 12 13 13 13 13 13 12 12 12 12 11 12 11 11 11 11 11 11 11 11 11 10 8 7 8 11 14 13 9 10 15 16 14 8 9 14 18 21 19 17 16 10 7 9 10 8 4 2 2 3 2 1 1 0 1 0 0 1 2 2 1 2 6 6 5 4 4 5 1 2 4 6 8 7 5 7 8 10 13 17 25 27 26
13 13 13 13 13 13 13 13 13 13 13 13 13 12 12 12 11 11 12 11 11 11 11 11 11 10 9 7 6 7 11 14 13 12 19 18 12 12 13 13 16 22 23 20 22 19 12 7 9 9 5 3 3 3 4 3 3 2 1 1 0 1 2 2 4 3 1 6 7 5 5 4 5 3 1 6 7 7 9 7 9 13 13 15 21 25 25 26
13 13 13 13 14 14 14 14 14 14 14 13 13 13 12 12 11 11 12 11 11 11 12 11 10 9 8 6 5 7 10 10 8 10 14 13 16 15 16 19 20 23 24 21 23 20 14 12 13 10 5 2 3 4 4 3 3 3 1 1 2 3 3 4 6 4 2 5 8 5 4 4 6 3 1 8 9 7 9 8 11 14 15 16 17 21 24 24
14 14 13 14 14 14 15 15 15 15 15 14 14 13 13 12 12 11 11 11 11 11 11 11 10 9 6 4 4 7 7 5 3 6 4 5 14 17 20 23 23 23 21 16 17 16 11 12 13 7 5 3 2 4 4 4 3 2 2 1 1 2 2 6 4 5 7 6 7 6 6 6 6 1 2 11 10 6 8 9 12 16 18 18 16 19 22 22
13 14 14 14 14 14 14 15 15 16 15 15 14 13 13 13 12 12 11 10 11 11 11 10 10 8 4 3 3 6 4 1 3 4 3 4 11 22 24 22 23 24 21 13 12 13 7 7 7 5 3 2 3 3 4 6 4 1 1 1 2 1 2 6 4 2 7 5 2 4 4 5 5 2 3 12 10 6 9 10 14 17 18 18 17 19 19 19
14 14 14 14 14 14 14 15 15 16 16 15 15 14 13 13 12 12 10 10 10 11 10 9 9 6 3 1 1 3 1 1 5 4 2 3 11 25 25 21 21 22 22 14 11 11 6 4 5 4 3 2 5 5 3 8 6 1 1 2 3 3 4 5 5 4 6 5 2 3 2 2 4 4 3 8 7 5 9 12 15 17 18 20 20 18 17 15
16 16 15 15 15 16 15 15 16 16 16 15 15 14 13 13 12 11 10 10 10 10 10 9 8 4 1 0 1 1 1 5 8 4 2 1 11 24 25 21 19 20 22 16 10 9 5 5 5 3 2 3 6 6 3 8 7 1 1 3 3 5 5 4 6 5 6 7 4 5 3 2 2 5 5 4 4 7 11 13 14 17 19 20 18 15 15 15
17 16 16 17 17 17 17 17 17 16 16 15 15 14 13 12 11 11 10 9 10 10 9 8 6 2 0 2 2 2 1 8 8 6 5 3 12 23 24 20 18 20 22 18 12 9 6 7 6 4 3 4 4 5 5 7 4 2 2 4 3 5 6 5 6 4 5 7 5 6 5 2 2 2 4 3 5 12 14 13 14 16 17 16 15 14 14 14
17 17 18 19 19 18 18 18 17 17 16 16 16 14 13 12 11 10 9 9 10 9 9 7 4 1 2 2 1 2 4 7 6 6 6 8 15 23 24 19 19 20 19 17 14 11 7 7 6 5 3 4 3 5 7 6 3 5 6 7 6 6 7 6 6 7 5 2 3 5 5 5 3 5 1 2 10 17 15 14 15 15 14 13 13 13 13 13
18 18 19 20 20 20 20 19 18 17 16 16 15 13 12 11 10 9 9 9 10 9 8 4 2 1 2 2 3 1 5 3 3 7 8 11 18 24 23 20 22 22 17 13 14 12 8 7 7 5 2 3 4 6 8 6 4 8 9 8 8 8 8 5 5 7 5 3 3 4 5 5 1 4 1 5 16 19 16 15 15 15 14 13 12 12 13 14
20 19 20 20 20 20 19 18 18 17 16 16 15 12 10 10 9 9 9 8 8 8 6 4 3 3 3 2 4 4 6 4 4 8 9 12 20 24 24 22 23 24 18 10 13 17 11 6 4 2 3 3 3 3 7 5 6 11 11 9 9 9 8 6 6 6 4 4 4 6 8 5 3 2 1 7 17 19 18 16 15 15 12 12 13 11 11 13
20 20 20 21 20 20 19 18 18 17 17 16 13 10 8 8 8 8 7 5 6 5 3 3 4 6 3 1 5 9 4 3 3 5 8 12 18 22 23 24 24 26 22 11 12 20 16 7 1 1 3 2 4 1 4 4 9 11 9 10 9 9 8 5 5 4 1 4 5 7 8 3 3 3 3 6 16 19 19 17 15 14 11 11 12 10 9 12
20 20 21 21 20 20 19 19 18 17 16 14 11 8 6 7 7 6 4 2 3 1 1 2 6 5 2 1 8 10 4 1 2 3 7 11 15 18 21 22 22 24 24 16 11 17 18 9 3 3 3 3 4 2 1 3 8 9 7 7 7 6 4 3 3 2 3 4 4 4 5 1 3 5 4 7 16 18 18 16 14 13 11 11 10 9 9 12
21 21 21 21 20 20 19 19 18 17 15 12 9 6 5 5 4 4 1 0 1 2 3 5 8 4 1 5 9 6 5 5 6 8 9 12 12 11 16 17 17 21 22 17 9 9 15 12 7 4 3 4 5 1 3 3 4 7 6 3 3 3 3 3 3 4 5 3 1 1 4 4 5 6 3 8 17 17 17 16 14 12 11 10 10 10 9 11
21 21 21 21 20 19 19 19 18 17 14 10 7 5 4 2 1 2 2 2 1 4 6 7 7 2 2 8 9 3 2 5 10 16 14 14 12 8 14 17 15 19 19 17 11 7 8 6 5 3 4 5 3 2 4 3 2 3 5 2 1 3 3 3 3 5 4 4 2 1 4 4 5 5 3 5 14 17 16 15 14 13 13 12 10 11 9 10
21 21 21 21 20 19 18 19 18 17 13 9 7 3 1 2 3 4 4 4 4 7 9 6 4 2 1 5 5 3 4 6 9 14 14 15 13 8 14 17 12 15 16 14 13 8 4 1 2 4 3 3 3 5 4 3 1 1 2 4 3 3 4 4 3 3 1 6 4 1 3 3 3 5 3 1 9 16 15 14 14 14 14 13 10 10 9 9
21 21 22 22 20 19 18 19 18 16 13 9 5 1 2 3 4 5 5 6 7 10 9 2 0 1 3 7 5 4 4 7 7 10 14 15 14 10 13 11 5 9 10 9 8 6 2 3 3 3 1 2 3 5 4 2 2 2 1 3 2 4 6 5 4 3 1 5 4 2 4 3 4 5 2 1 3 10 15 13 14 14 13 12 10 10 9 9
22 22 21 22 21 19 19 19 18 17 13 8 3 1 2 4 5 5 7 9 8 7 3 2 1 1 3 5 4 5 6 5 6 9 14 15 15 12 12 7 3 7 4 2 4 3 2 2 1 1 1 2 3 4 4 4 5 4 3 3 1 2 6 5 5 6 6 5 3 5 6 5 7 4 2 2 0 6 14 13 12 13 13 12 10 10 9 9
22 21 21 22 21 20 19 18 19 17 13 8 2 1 2 4 4 4 6 7 5 2 3 3 2 0 2 4 5 8 11 7 4 9 14 15 13 12 9 6 5 7 5 2 2 4 3 1 2 3 2 3 5 5 5 5 6 8 6 6 6 3 3 5 5 9 12 7 5 7 7 7 9 4 2 3 3 5 13 12 11 12 11 11 10 9 9 9
21 21 21 22 21 20 18 18 19 17 13 8 1 1 2 2 2 0 2 3 4 5 5 4 6 3 5 5 6 8 11 7 4 8 15 16 11 8 4 2 4 5 4 3 3 3 3 3 3 4 6 5 5 6 6 3 3 7 6 5 7 4 3 5 7 10 11 8 6 6 7 8 10 7 4 2 5 6 14 13 11 12 11 10 10 10 10 9
22 21 21 21 21 21 18 18 18 14 11 9 3 2 2 1 1 2 2 4 7 10 10 8 9 8 8 8 7 4 5 3 3 5 14 17 10 7 2 1 4 2 3 4 2 0 3 4 6 6 7 6 5 6 5 2 1 4 5 5 5 4 2 3 6 7 5 3 4 6 6 8 9 8 6 2 4 7 13 14 13 13 12 10 10 11 10 9
22 21 21 21 20 20 18 18 17 12 10 10 5 1 2 3 2 2 1 3 7 9 11 8 6 8 10 13 14 5 2 2 5 3 8 13 7 4 2 3 5 3 2 2 1 2 1 4 7 7 6 5 4 4 2 2 2 3 4 6 4 4 4 4 6 6 2 1 5 7 7 6 6 7 5 1 3 3 5 11 14 14 12 11 10 10 10 9
23 21 20 19 19 19 17 18 15 10 10 12 7 4 6 9 8 7 2 2 6 4 6 5 4 5 6 9 11 5 4 3 5 3 6 11 5 4 5 4 5 4 1 3 4 2 2 6 7 7 5 6 3 3 3 2 1 4 4 5 4 7 5 3 5 5 2 1 6 8 5 2 3 4 5 2 2 4 4 5 12 12 12 13 11 11 11 12
23 22 20 19 19 17 16 17 11 7 13 16 10 7 13 19 17 9 1 0 4 4 4 5 5 5 5 6 4 7 3 3 5 4 6 9 4 3 5 4 4 3 1 3 6 4 5 8 4 4 5 6 4 3 5 4 2 2 5 5 6 9 5 4 8 7 4 3 6 9 5 1 3 4 6 2 0 5 4 2 9 9 9 10 10 11 12 13
24 22 20 19 19 17 17 13 4 7 17 14 8 13 18 20 19 8 2 2 3 5 3 2 2 3 5 3 5 7 3 3 5 5 7 9 7 3 3 2 3 4 4 3 5 3 8 7 3 5 4 5 4 4 5 6 3 2 5 7 9 11 7 11 13 8 4 1 5 8 4 2 3 5 7 3 1 5 3 2 8 7 6 7 8 10 11 12
25 22 19 19 19 19 14 4 3 12 15 8 8 18 19 16 15 6 2 4 2 4 3 0 0 2 3 1 4 4 3 3 6 5 8 10 10 5 2 1 1 4 5 3 3 3 5 3 5 5 5 5 5 4 5 7 5 2 5 7 9 10 12 16 14 6 3 3 5 4 3 3 3 5 7 5 4 6 4 0 4 5 5 6 7 9 10 11
24 21 18 17 19 19 10 2 8 12 6 5 13 19 18 14 9 2 2 5 2 3 2 1 0 1 2 1 3 5 2 4 2 3 6 10 8 4 3 3 0 2 3 3 2 3 5 3 4 5 5 5 5 4 6 8 6 4 5 11 12 11 14 16 11 4 2 4 3 1 1 2 2 5 6 6 6 7 6 4 3 3 4 5 6 7 9 11
24 21 17 15 17 17 9 6 10 8 4 9 16 17 17 12 3 2 4 3 1 2 1 2 2 1 2 3 1 4 3 3 3 2 4 10 7 4 3 4 4 4 3 5 4 5 4 4 5 7 5 4 5 5 8 10 6 6 5 11 12 11 14 13 7 4 4 5 4 4 2 2 1 2 4 6 8 9 8 7 5 4 4 4 5 5 6 9
23 20 17 15 16 14 9 9 9 6 8 13 16 18 16 9 2 4 4 2 1 2 1 1 2 2 1 1 2 1 2 0 2 3 2 7 4 3 4 5 6 5 4 5 6 6 4 5 6 7 5 6 7 7 10 11 8 4 8 10 7 7 7 6 3 2 4 4 4 9 6 2 1 3 5 5 7 10 9 7 5 5 4 4 4 4 3 4
22 18 16 15 14 11 9 11 10 8 12 14 16 18 13 5 3 5 3 1 1 3 2 1 2 1 2 3 1 3 2 1 0 1 3 3 1 3 2 2 3 2 3 1 4 6 5 4 4 4 5 7 7 7 9 12 8 7 12 11 11 8 5 5 3 1 2 0 4 10 9 3 1 3 6 6 5 9 10 7 6 5 4 4 3 3 4 4
20 17 16 15 14 10 7 8 10 12 15 15 16 13 7 4 3 5 1 0 0 3 3 2 2 1 2 4 1 2 1 1 1 4 3 3 4 3 2 2 2 1 3 4 3 5 5 3 4 4 6 7 5 5 5 8 9 9 8 7 8 5 6 5 4 4 2 2 4 11 10 3 1 3 6 6 3 8 12 9 9 8 5 5 4 6 7 7
18 15 15 14 14 12 8 9 14 16 15 13 11 6 4 3 3 2 2 2 1 3 2 3 2 1 1 2 1 2 1 0 0 4 3 3 2 2 2 2 2 1 3 3 2 5 4 4 5 4 5 6 6 3 0 4 7 7 6 7 7 3 2 3 2 3 1 3 4 11 11 2 4 3 4 8 6 7 10 9 9 9 5 5 8 8 5 5
17 14 13 13 15 16 15 16 17 14 12 11 7 4 5 4 2 1 3 2 2 4 2 2 2 3 3 3 1 2 2 1 2 1 2 3 3 2 1 2 4 3 1 3 2 4 3 5 5 2 4 5 8 5 2 3 5 7 8 6 6 4 2 2 2 2 3 4 1 10 10 1 4 2 3 6 9 8 8 8 7 6 5 8 8 6 3 2
16 12 11 13 16 18 17 15 12 8 9 9 5 4 5 4 1 3 3 3 4 4 3 1 2 3 4 2 3 1 2 1 1 3 3 4 3 2 3 3 1 3 2 1 1 1 1 4 4 4 4 3 7 7 7 8 6 7 8 7 6 6 5 4 5 3 2 2 3 7 7 1 2 2 6 4 6 7 7 8 7 5 8 9 6 5 4 3
14 11 12 13 15 16 13 9 6 4 5 5 5 5 5 1 3 2 2 4 3 3 4 2 4 5 3 2 3 1 1 1 1 5 3 3 3 1 2 3 4 1 4 1 2 2 2 4 7 5 3 5 7 5 6 9 7 4 3 6 5 6 6 4 4 4 4 3 3 3 3 1 2 2 6 3 6 8 7 9 9 8 8 9 7 5 5 4
13 10 10 11 13 13 10 7 2 2 4 5 5 4 2 2 3 2 2 3 2 2 4 6 6 5 4 4 5 6 2 2 3 4 2 2 3 3 2 3 3 1 4 3 2 1 1 4 6 4 2 3 7 6 4 6 6 2 3 5 4 4 7 4 1 1 4 3 1 1 1 2 1 2 5 6 9 8 7 7 8 8 9 9 8 7 6 5
13 10 7 10 13 12 10 6 1 3 5 5 4 1 2 2 3 3 3 3 2 2 4 4 4 3 2 2 4 6 3 3 4 3 2 2 2 3 4 4 2 0 3 3 2 2 2 3 6 2 1 3 3 6 5 3 6 6 4 6 2 2 3 4 3 1 3 3 0 1 1 2 0 1 2 6 10 8 7 7 6 7 10 10 8 7 7 6
13 9 7 9 10 9 7 3 4 5 5 5 3 2 1 1 2 2 3 3 1 3 5 3 2 2 1 1 2 5 2 3 5 3 2 3 1 1 4 4 2 2 1 2 2 1 2 1 6 2 3 4 3 6 5 4 3 5 5 4 3 3 1 2 3 2 2 3 0 2 2 1 2 1 0 7 8 6 7 8 8 9 10 10 8 8 7 6
7 5 4 4 5 7 2 5 6 5 5 3 2 2 1 2 4 3 4 3 2 4 5 2 1 3 2 2 1 3 2 3 2 3 2 2 0 0 2 2 2 5 4 3 3 2 1 2 4 5 3 2 4 4 3 1 3 4 3 2 1 3 3 3 3 3 4 4 2 1 2 2 1 1 2 9 9 9 9 9 9 10 9 8 8 8 6 6
3 2 2 5 9 4 5 9 5 5 3 0 1 2 2 2 4 6 5 3 3 2 3 2 2 3 2 2 0 1 3 3 3 3 2 1 0 2 3 1 2 5 5 4 3 1 1 3 2 6 4 1 0 1 5 5 2 3 3 2 0 1 2 2 1 1 4 5 3 3 1 2 1 1 3 9 7 6 9 10 9 8 7 7 6 6 5 4
3 2 2 7 11 3 8 7 3 2 1 2 2 3 3 1 1 7 7 4 3 1 3 4 3 2 1 2 3 2 2 3 3 4 2 2 1 1 3 1 2 5 4 5 4 2 1 2 1 3 3 2 2 4 4 7 6 5 4 2 2 2 3 3 1 2 2 4 4 5 3 2 2 2 2 7 6 4 7 10 10 7 7 7 5 6 5 3
4 1 4 6 6 4 6 4 2 0 1 2 2 3 2 1 2 5 6 5 5 2 3 4 3 2 2 2 1 1 3 3 3 3 2 1 1 2 3 4 4 3 2 2 3 2 1 2 2 2 2 2 6 7 2 4 6 6 3 2 3 3 4 5 3 3 2 3 2 3 2 0 1 1 3 6 6 6 7 7 8 7 8 8 5 5 5 4
2 2 5 9 2 7 6 3 3 2 1 4 3 2 1 2 2 4 5 5 5 3 4 3 1 2 2 2 1 1 2 2 3 2 2 1 1 3 5 7 6 3 3 2 3 2 0 2 3 3 3 4 6 6 5 4 6 5 2 2 4 2 2 5 5 3 4 3 2 3 1 1 1 1 4 7 7 8 7 6 7 7 7 8 6 4 5 5
1 4 4 9 3 8 5 0 3 2 4 4 2 1 2 2 2 3 4 4 3 2 2 2 1 1 1 2 4 2 1 2 2 2 2 2 1 3 5 8 6 3 2 1 1 2 2 2 2 2 3 4 5 6 7 6 4 2 2 2 3 5 6 5 3 4 3 3 4 4 2 2 2 3 6 8 9 9 7 6 7 7 6 7 7 5 5 7
1 1 3 6 5 4 4 3 4 2 4 2 2 1 2 3 1 1 2 2 3 1 2 1 2 2 2 3 4 4 4 4 2 2 3 2 2 3 6 7 6 4 3 2 1 1 1 2 3 3 3 3 1 1 3 3 3 1 1 3 3 6 8 6 4 4 3 4 4 4 3 4 6 7 6 7 9 10 8 7 7 6 6 5 6 6 6 7
2 1 3 6 6 4 0 2 4 3 2 2 3 2 3 2 3 3 4 3 4 3 2 1 2 3 4 5 5 5 7 6 4 2 3 3 3 2 4 6 7 7 8 7 5 2 3 3 3 5 5 4 6 5 4 2 0 2 1 3 4 3 4 6 5 3 4 5 3 1 6 11 11 10 8 8 9 9 9 8 8 6 6 6 6 6 7 7
2 1 2 2 3 4 3 3 4 2 1 4 2 2 3 3 3 4 4 3 3 4 3 3 5 4 2 3 4 3 6 6 6 4 2 3 3 3 5 5 7 10 11 8 7 3 4 4 5 2 2 2 5 5 6 2 2 2 2 2 4 4 5 6 3 5 8 7 1 3 11 15 14 12 11 11 10 9 9 9 8 7 7 7 7 7 8 8
2 0 0 1 0 1 2 4 5 3 3 4 2 2 3 5 4 3 3 2 4 5 3 4 8 7 3 2 4 3 5 5 5 5 3 3 3 4 7 6 6 9 8 6 5 3 5 3 6 4 3 4 3 4 6 3 2 2 3 3 4 4 6 6 2 4 8 5 5 11 15 14 14 13 11 11 11 10 10 9 9 8 8 8 9 9 9 8
2 1 2 1 1 2 4 5 5 1 4 5 3 3 3 4 5 2 3 3 5 6 4 4 6 8 7 6 6 4 4 3 2 3 3 2 3 3 4 5 5 7 7 5 5 3 5 3 6 4 4 7 9 7 6 5 4 4 6 6 6 6 6 7 6 5 5 5 9 16 13 9 10 11 11 10 10 10 9 9 9 9 9 9 10 10 10 8
1 0 2 3 2 2 4 4 2 2 4 4 3 2 1 3 4 2 3 4 2 5 4 5 3 5 8 8 8 5 1 3 3 1 1 2 3 1 1 2 3 5 6 4 4 3 4 2 5 4 4 6 8 9 7 6 6 6 7 8 8 9 8 7 6 6 8 9 11 14 11 6 5 8 10 10 10 10 11 10 10 9 8 9 10 10 10 9
2 3 1 2 2 3 3 3 2 4 3 2 2 1 2 2 3 4 4 4 2 1 1 4 3 4 6 9 9 4 2 5 4 2 3 3 2 1 1 1 1 3 5 4 3 4 4 1 2 5 5 4 6 8 9 6 6 8 8 9 7 5 5 4 3 3 7 12 13 12 9 7 7 8 10 11 11 12 12 11 11 9 8 9 10 9 9 8
5 3 2 3 0 3 3 3 3 3 1 0 1 1 2 1 0 5 5 4 4 3 1 5 4 4 5 8 7 3 4 5 5 4 4 3 2 3 2 2 3 3 3 2 3 3 2 2 2 4 3 4 6 7 6 5 7 5 5 5 4 3 5 4 3 3 10 15 13 9 8 8 10 12 12 13 13 12 11 10 11 10 9 9 10 10 9 8
Wind_Direction
337 336 334 333 332 331 330 330 329 327 326 324 323 323 322 321 319 318 317 316 313 311 311 310 311 312 312 316 315 307 309 307 306 297 247 251 249 231 218 188 179 162 164 180 174 157 148 162 190 186 169 169 163 136 151 144 145 147 185 174 55 195 175 153 135 31 150 138 149 172 166 171 144 140 290 101 107 118 109 81 96 95 100 113 126 137 142 143
337 335 334 333 332 331 330 329 327 326 324 322 322 321 320 319 317 315 314 314 311 309 309 308 310 311 314 320 313 312 317 313 309 282 252 251 253 230 204 181 173 161 159 174 176 162 152 167 181 178 161 154 176 152 158 162 162 197 198 118 230 191 177 129 89 33 294 143 148 168 163 168 140 128 274 130 132 122 109 112 115 107 108 117 130 141 144 144
336 335 334 333 332 331 330 327 326 324 322 321 319 319 319 317 315 313 312 312 308 306 306 307 310 313 317 318 314 321 319 320 309 267 260 250 236 222 186 175 172 167 165 174 183 171 159 169 172 168 154 175 180 149 174 180 174 217 196 179 231 188 154 101 110 142 154 138 145 159 171 158 138 115 50 138 135 127 127 138 134 126 130 135 141 145 146 147
335 334 331 331 330 330 329 327 325 324 322 320 318 317 316 315 314 311 311 310 307 304 304 307 312 313 316 315 316 324 319 322 291 244 268 249 217 197 175 171 170 175 177 176 183 172 152 157 167 168 158 194 166 140 187 191 172 213 205 198 189 179 129 86 101 147 130 133 151 155 158 150 148 98 108 141 135 138 151 156 149 141 142 144 147 148 149 151
334 332 330 329 328 328 327 326 326 325 324 321 318 316 314 314 312 310 309 305 304 303 305 307 310 313 309 312 316 319 333 354 271 249 290 283 198 177 171 170 170 181 184 178 177 171 155 139 157 180 180 199 154 146 197 186 172 191 203 78 70 38 90 97 78 98 120 122 128 134 143 143 137 83 144 153 149 162 161 160 154 144 145 148 147 148 152 155
335 333 332 330 328 327 325 325 324 324 324 322 319 316 314 312 309 310 306 303 304 304 307 308 311 315 296 299 306 308 86 203 284 259 281 303 185 173 168 171 174 182 187 182 168 168 170 124 139 178 197 207 176 189 191 176 185 200 175 89 65 32 71 119 123 114 124 117 111 121 51 356 115 118 159 158 150 151 147 151 151 144 146 144 144 150 154 157
337 335 335 332 329 328 327 325 323 322 322 322 320 317 314 311 309 307 304 305 305 305 308 309 311 304 286 92 187 344 115 264 273 225 231 10 179 175 168 172 173 178 186 184 166 161 164 149 159 169 195 228 190 204 178 162 190 209 94 116 79 61 73 106 122 132 137 127 136 131 96 351 136 147 146 149 145 131 135 143 145 142 143 142 145 154 155 157
340 339 337 334 331 329 329 326 324 323 320 319 319 316 313 310 307 305 306 306 305 307 305 304 307 280 200 130 171 359 313 253 245 216 238 186 171 172 168 170 173 176 182 186 178 158 154 164 177 164 185 245 205 197 164 139 185 216 136 139 111 83 82 76 92 97 113 124 130 122 119 83 342 245 143 145 148 130 134 142 141 141 143 146 150 154 154 156
342 341 339 336 333 331 329 326 325 323 319 318 318 318 316 312 309 310 311 311 309 306 300 297 295 234 158 152 127 330 271 247 228 221 223 182 170 170 170 174 176 177 179 189 185 162 169 180 187 183 201 256 213 181 166 144 193 201 163 147 133 108 93 74 72 72 74 86 104 108 113 95 355 290 285 147 145 133 138 144 141 143 147 152 154 155 157 158
342 341 339 336 335 333 329 328 326 324 321 319 322 326 322 316 313 315 315 315 311 300 297 283 232 142 178 186 105 221 267 271 207 199 190 178 174 172 176 180 178 178 178 186 187 180 185 172 169 189 224 267 229 189 179 175 174 168 161 144 131 114 104 96 83 93 104 81 84 108 96 81 341 277 308 143 143 136 140 145 145 148 152 157 157 158 161 162
343 341 338 336 336 334 332 331 329 326 325 324 329 330 322 318 316 319 321 317 306 294 286 257 205 182 199 132 124 214 279 303 221 198 192 188 182 181 186 187 181 181 179 176 194 199 197 178 155 178 213 261 283 206 176 168 134 146 148 127 117 108 112 127 116 123 138 100 103 110 88 46 333 308 39 148 145 141 144 149 151 152 155 160 160 162 164 167
342 340 339 339 338 337 336 335 332 331 330 330 333 329 321 320 320 324 327 321 302 287 272 248 184 173 183 91 198 227 282 337 236 207 204 201 193 194 196 193 189 187 183 177 203 206 200 196 169 266 242 313 331 264 176 159 129 133 131 121 120 106 111 133 115 111 107 106 129 118 94 34 321 316 321 154 148 144 147 152 156 156 157 161 164 165 168 172
342 340 341 342 341 339 338 338 338 337 335 334 334 329 327 323 328 339 336 329 308 275 155 179 162 156 138 233 235 235 251 313 294 250 216 209 205 201 198 196 196 196 194 190 202 208 204 210 224 242 275 327 303 268 179 146 125 121 112 120 131 111 112 133 105 89 74 103 154 140 121 195 270 282 296 157 152 148 149 157 160 160 161 164 169 169 174 176
342 342 343 343 343 342 340 343 342 341 341 339 338 335 333 328 343 7 21 43 345 148 133 145 148 130 124 256 269 272 269 268 265 253 225 210 207 201 198 196 198 203 205 202 200 200 202 213 230 254 276 234 253 285 96 89 104 118 108 100 132 136 153 139 137 164 127 103 251 75 129 188 234 257 266 156 156 153 155 162 163 164 166 169 173 174 179 179
344 343 343 344 345 344 344 346 345 348 350 346 344 336 335 347 44 67 98 92 71 150 146 140 149 119 347 276 281 315 286 255 245 240 232 213 199 193 195 193 202 209 212 211 210 205 196 207 222 248 273 226 213 84 100 68 44 123 116 110 174 133 137 124 147 183 141 124 230 353 122 178 226 233 248 159 160 159 159 165 167 167 169 172 175 177 180 181
345 343 344 344 345 346 346 348 350 356 359 352 346 332 11 65 97 101 114 102 92 134 138 137 170 152 12 282 290 321 236 226 242 234 228 219 203 190 185 187 204 211 214 216 220 239 237 240 221 214 245 215 133 108 99 65 59 252 122 145 174 140 134 138 165 233 81 125 185 267 129 151 221 216 246 126 159 165 163 167 169 166 170 173 174 178 179 178
345 344 343 342 345 348 346 349 353 1 6 1 351 307 109 85 107 106 105 98 105 139 141 131 277 142 262 282 308 320 243 224 239 215 205 212 206 185 166 174 203 194 204 222 231 259 229 194 221 223 235 111 122 113 104 111 183 237 94 118 162 142 142 148 166 215 138 137 175 173 142 155 167 180 224 105 144 168 168 168 168 165 171 175 174 178 179 175
346 344 343 341 345 349 347 349 352 357 5 9 6 190 123 98 112 110 109 103 108 139 164 286 317 56 266 282 296 298 297 266 228 194 192 202 205 190 166 164 144 136 147 234 235 235 189 198 163 156 43 95 130 119 133 193 182 181 163 118 125 148 154 156 158 170 158 152 166 150 152 155 147 147 249 208 173 179 175 169 167 168 171 176 176 178 178 173
346 344 342 340 344 349 347 347 350 352 360 14 21 171 134 116 111 117 124 113 111 163 274 240 184 68 256 263 280 296 308 293 205 183 192 200 207 202 179 158 112 109 110 75 230 207 167 114 85 145 193 168 163 155 172 187 167 182 187 150 161 169 150 145 144 157 152 150 170 166 166 156 150 165 229 232 293 198 178 172 171 172 174 177 179 180 176 174
348 345 342 341 344 349 346 343 348 346 356 19 46 146 123 108 57 26 171 165 202 230 260 214 182 246 282 271 285 309 315 295 202 186 196 199 193 179 176 141 89 89 127 149 216 211 132 157 203 199 199 183 172 180 192 183 165 193 189 153 160 151 116 133 143 156 151 150 169 168 166 155 150 169 190 246 285 209 178 177 178 176 177 180 181 181 175 176
349 346 344 343 343 347 343 338 345 344 355 16 28 131 159 223 19 327 275 238 232 222 238 230 195 231 267 268 278 316 347 304 230 207 200 197 171 140 183 151 112 130 201 179 209 59 101 181 220 217 200 177 169 191 200 184 143 194 172 137 130 128 104 96 120 148 163 149 135 135 154 153 146 164 182 211 252 211 182 181 182 180 181 181 181 180 174 174
351 348 346 344 344 346 340 335 342 343 356 7 8 129 233 254 222 261 338 293 264 219 222 238 220 247 265 267 269 265 61 280 266 277 192 181 157 142 173 106 134 198 234 130 95 26 72 227 231 225 194 140 157 197 157 120 103 82 126 132 121 137 112 75 102 133 192 164 129 141 153 147 131 155 184 219 264 254 203 191 186 180 180 183 181 176 171 168
351 349 347 346 346 346 339 334 337 341 353 351 332 284 319 333 305 287 322 296 284 241 209 211 211 243 261 270 261 197 122 218 232 264 178 161 158 171 148 108 153 184 85 122 148 148 207 242 233 219 171 127 174 207 112 116 132 90 136 141 145 172 149 118 146 127 55 76 140 145 135 117 106 142 190 210 290 294 303 207 188 182 181 184 182 172 169 167
350 350 348 344 347 350 339 332 331 340 344 333 313 314 344 349 335 318 343 288 294 289 225 192 191 210 236 271 221 155 140 205 194 215 179 151 141 167 157 140 143 166 236 155 151 171 237 252 219 156 153 149 181 194 128 148 224 179 180 162 159 182 165 118 144 128 68 66 133 134 109 152 157 174 204 178 267 280 319 160 179 186 188 184 177 170 170 167
350 348 348 344 347 351 340 331 326 341 336 322 316 345 349 347 343 343 89 53 319 295 278 201 206 231 246 247 176 162 153 217 220 199 167 150 142 140 172 164 133 191 226 153 139 205 258 256 157 135 165 155 166 199 168 166 190 244 218 194 175 173 135 119 137 132 96 119 173 154 141 201 185 199 209 159 185 262 320 119 165 172 183 182 171 172 173 167
348 345 348 344 342 348 347 342 337 336 332 317 337 349 345 343 343 341 102 52 343 293 319 22 280 279 283 230 164 132 96 246 245 177 153 158 156 135 141 199 112 191 202 154 149 224 262 235 142 169 190 161 168 208 200 162 144 253 228 178 164 155 133 138 150 146 127 176 199 183 149 161 198 222 204 165 205 249 291 212 165 155 169 182 176 174 173 167
346 344 347 342 338 346 350 313 326 330 323 318 338 343 343 347 345 324 77 43 347 296 303 273 13 51 303 267 140 108 124 252 241 149 164 168 162 107 127 193 177 190 186 147 190 241 242 223 153 176 186 178 186 208 199 153 136 241 205 148 153 155 144 149 155 150 140 117 119 197 55 115 204 224 182 161 196 236 265 249 191 166 172 176 175 175 177 171
345 342 342 340 336 337 333 313 320 320 295 317 331 337 342 347 350 126 75 62 340 315 267 261 295 311 296 296 99 119 204 230 145 211 194 164 161 87 131 196 171 195 204 153 213 261 224 214 198 184 184 200 205 199 177 156 173 240 173 143 158 156 147 150 147 145 146 114 126 212 210 113 221 206 136 156 192 214 234 229 200 184 183 171 162 164 182 176
343 340 336 336 332 328 325 312 307 312 316 323 331 333 337 347 43 79 70 89 14 302 237 323 303 294 324 312 330 327 256 282 156 234 141 146 171 95 154 203 170 205 249 166 209 260 230 209 197 176 180 208 217 203 168 171 212 218 115 101 90 101 117 121 113 132 132 114 173 200 189 140 219 206 155 172 204 206 214 221 201 183 177 168 156 142 142 159
341 338 331 331 327 326 324 308 307 330 328 325 327 328 338 4 62 64 46 57 6 269 256 1 293 315 89 131 310 303 243 282 170 110 84 117 354 41 137 189 130 188 283 247 225 252 258 228 190 178 195 203 208 197 175 182 189 119 102 86 65 54 33 37 15 6 98 112 207 187 181 154 189 219 190 190 199 186 188 203 196 181 170 168 158 119 86 67
339 335 327 325 319 316 314 307 318 327 322 321 322 329 2 34 67 82 60 347 330 283 291 283 276 7 115 152 179 288 247 310 59 109 104 75 41 25 21 17 47 41 344 337 286 279 295 249 207 223 214 191 180 190 186 180 162 119 112 114 85 37 12 33 350 349 90 250 227 179 170 150 240 236 208 206 182 165 178 189 188 185 183 163 104 63 58 47
337 332 322 318 311 301 289 295 312 319 320 324 330 357 66 42 28 78 269 323 334 264 248 245 247 227 211 119 134 249 182 322 185 130 133 104 99 175 184 191 188 40 337 301 308 318 303 243 235 251 226 183 159 182 186 155 157 128 126 129 104 61 22 63 323 317 199 255 233 172 158 154 247 248 219 201 182 175 181 173 178 189 177 117 83 70 65 63
334 329 317 311 305 298 297 303 312 322 326 330 350 51 82 70 36 284 274 320 258 236 230 230 204 158 119 74 292 249 100 218 241 111 100 101 117 200 251 212 166 125 232 232 307 340 323 291 278 237 238 191 153 164 155 155 167 141 142 144 117 116 115 131 231 271 253 275 224 158 154 202 258 299 317 212 178 173 171 154 168 180 120 93 95 104 119 129
334 330 315 307 302 299 303 313 322 331 332 344 32 64 58 68 294 287 288 266 249 256 279 241 160 110 93 125 240 211 90 275 207 95 42 44 56 352 347 331 226 145 145 177 298 193 146 294 265 191 223 190 157 180 169 150 163 163 155 143 137 150 146 164 197 201 222 251 82 136 155 230 246 302 321 274 159 142 144 137 136 120 102 103 111 131 146 158
337 330 315 305 300 297 305 324 342 359 351 18 61 65 61 70 261 285 276 264 273 300 313 351 92 76 27 336 304 326 135 264 41 73 41 50 73 348 339 314 301 146 123 119 259 201 156 251 251 242 239 162 156 190 153 129 150 191 143 119 151 177 151 149 188 170 156 137 88 136 183 252 217 272 330 357 104 113 122 122 122 117 113 116 119 140 164 164
341 336 319 304 298 294 304 320 334 46 37 59 61 47 74 219 235 190 243 276 308 317 341 16 54 58 1 351 343 337 15 49 32 59 42 78 89 8 312 257 300 56 130 154 223 229 105 260 274 313 327 170 169 173 134 131 154 157 128 157 192 173 132 123 156 120 99 103 101 219 273 306 269 342 6 55 84 89 100 111 122 125 122 126 138 158 172 168
345 346 320 295 295 293 299 302 208 81 52 76 71 15 222 229 202 187 266 303 328 9 63 51 43 61 9 15 355 329 0 42 19 57 69 23 43 350 314 272 271 117 166 169 201 196 148 266 295 355 39 269 203 127 86 89 130 127 168 191 181 71 95 104 112 83 64 88 330 332 307 287 251 351 9 69 73 65 74 91 108 128 135 143 155 164 164 160
337 343 316 291 295 299 303 282 142 89 63 74 33 314 224 279 244 214 293 314 345 40 68 76 64 96 143 106 8 314 337 44 5 41 87 20 10 308 316 287 274 339 277 136 136 223 121 288 299 283 185 276 342 84 73 16 75 122 160 166 112 115 167 130 135 150 107 115 212 355 331 287 143 201 69 97 104 108 110 116 125 139 147 152 160 160 153 144
338 354 323 313 327 320 319 140 124 71 57 60 356 297 229 283 284 299 321 332 46 60 61 59 61 77 76 111 153 305 6 80 39 45 76 47 53 207 342 277 285 328 334 84 114 264 91 112 284 284 234 272 3 66 120 306 5 63 82 58 66 144 160 159 154 151 132 142 165 63 328 282 184 245 114 119 138 151 142 135 132 138 145 148 153 149 138 134
16 24 302 9 12 351 131 119 89 56 57 11 238 245 284 273 291 327 345 22 54 66 71 52 44 67 36 11 10 324 31 77 89 70 61 47 322 299 316 286 283 309 330 50 79 278 20 98 222 295 320 42 10 169 167 173 144 73 63 46 4 96 120 123 80 88 124 138 152 133 224 265 299 295 137 125 131 136 134 130 121 122 125 121 125 122 116 124
45 33 275 19 28 88 124 92 39 63 91 292 241 244 295 281 322 340 350 36 59 120 119 99 85 98 120 26 7 349 29 48 68 78 63 24 60 282 300 337 284 301 348 35 22 357 21 82 167 301 356 78 253 262 183 168 158 139 134 154 172 149 114 100 53 311 100 119 152 152 175 257 347 332 136 121 114 99 110 118 110 97 96 98 100 107 107 117
53 47 260 355 16 150 107 56 304 107 126 268 252 233 283 345 22 351 349 21 43 43 62 78 85 84 116 112 16 355 60 49 32 73 107 50 99 206 297 339 314 301 46 48 305 284 165 90 72 282 251 213 262 281 262 155 132 118 119 137 145 137 120 125 173 225 84 82 96 99 113 258 346 332 121 109 108 99 92 98 98 93 94 96 99 111 115 118
87 241 294 355 20 156 95 26 281 331 266 249 275 274 299 8 26 2 1 19 27 26 34 36 65 72 81 107 78 44 75 65 32 76 137 36 338 258 301 334 332 335 53 36 306 289 144 70 38 315 300 304 296 308 343 27 80 84 33 76 124 132 126 140 162 156 123 132 117 73 67 195 178 150 123 118 116 111 108 104 101 104 106 108 114 119 113 107
163 242 297 359 35 154 121 293 254 300 276 268 332 326 332 26 49 19 13 14 357 19 60 11 326 66 74 84 74 52 61 89 52 19 105 102 320 302 330 344 349 10 34 30 281 310 347 56 59 33 16 356 344 350 351 354 31 63 319 344 97 109 107 114 109 79 107 178 151 124 163 186 156 157 137 133 131 123 126 130 119 117 118 117 118 109 99 99
17 275 278 339 10 121 146 185 174 205 264 301 33 8 5 19 358 350 46 25 342 41 92 322 317 70 52 56 64 33 35 87 90 351 39 72 296 329 353 353 9 21 345 289 255 308 54 77 85 105 119 141 170 321 315 308 326 328 326 11 58 113 122 125 111 84 126 178 139 127 154 134 138 156 148 142 138 130 134 136 123 119 121 119 113 107 102 98
43 24 312 326 360 47 55 204 131 146 210 95 47 359 49 33 301 325 55 49 352 20 78 329 345 59 44 48 57 23 22 58 87 57 32 348 297 305 336 359 26 10 346 354 8 49 107 62 65 130 143 165 185 226 262 239 26 345 15 54 62 104 110 105 111 132 160 147 96 100 150 140 150 164 154 146 142 135 137 132 122 120 118 111 106 104 101 97
68 41 5 332 340 9 349 349 42 49 153 114 85 349 46 46 325 345 29 47 352 4 44 27 23 37 36 64 80 34 12 33 45 41 2 311 290 290 321 5 29 4 352 3 12 50 101 33 7 89 122 171 193 246 293 335 81 7 331 98 105 110 105 103 135 175 150 130 109 195 155 147 159 170 159 152 148 139 137 133 127 125 117 111 106 99 95 96
52 221 92 108 228 321 329 335 340 348 54 84 79 39 54 53 45 16 351 4 8 11 47 32 12 17 27 93 108 58 15 33 27 360 328 327 339 338 341 352 11 9 9 7 4 56 106 37 353 359 359 7 12 326 328 17 83 31 15 55 76 89 118 121 126 156 146 145 174 170 163 159 161 163 156 151 147 140 137 134 128 122 116 110 104 97 90 86
31 29 317 16 105 213 243 286 295 324 62 64 48 47 78 74 59 16 322 21 15 3 53 70 9 19 40 63 97 74 22 58 43 336 325 353 357 13 5 335 332 7 25 18 360 61 104 25 350 0 0 359 2 352 0 38 50 33 27 35 56 71 96 104 92 87 89 95 137 147 151 155 152 153 149 141 140 136 130 128 124 120 119 115 106 102 97 88
44 163 313 0 9 276 262 288 299 94 51 43 56 41 69 88 75 45 14 52 39 342 34 87 65 50 56 58 79 88 81 142 127 336 356 64 27 37 46 294 291 342 16 24 346 9 80 6 331 23 35 347 347 351 359 31 57 48 27 25 51 71 72 81 98 95 79 86 113 124 124 130 146 146 137 131 133 133 132 132 126 123 127 124 115 110 107 101
324 251 295 66 359 328 313 317 20 90 43 23 109 96 10 40 99 99 51 35 76 32 96 138 112 54 50 52 60 62 234 179 168 244 212 150 84 104 145 209 226 342 4 23 351 358 60 91 327 46 49 321 328 346 341 3 48 41 18 5 16 57 83 92 102 112 120 121 120 120 129 155 166 148 134 134 140 141 142 139 133 132 137 128 119 114 111 111
353 297 1 93 265 340 359 334 7 78 84 293 149 110 57 334 331 105 84 15 22 42 149 160 122 62 45 41 33 352 266 219 216 239 210 165 74 81 87 52 71 55 10 27 26 0 47 83 38 53 60 294 308 332 338 12 37 13 332 322 341 52 103 107 64 104 140 139 140 153 163 159 155 149 143 145 148 147 147 145 139 139 137 128 121 117 112 111